Skip Page Navigation
NASA JPL Caltech
NASA Logo - Jet Propulsion Laboratory + View the NASA Portal
+ Center for Near-Earth Object Studies
JPL Home Earth Solar System Stars & Galaxies Technology
JPL Solar System Dynamics
BODIES ORBITS EPHEMERIDES TOOLS PHYSICAL DATA DISCOVERY FAQ SITE MAP
IMPORTANT: The SSD Announcement email list is now available. Major changes are coming in the near future, including possible hostname and/or URL changes. To be notified of such changes, subscribe to this email list.

Please visit this page for more details.


JPL Small-Body Database Browser
Search: [ help ]  
266252 (2006 YE3)
Classification: Main-belt Asteroid          SPK-ID: 2266252
Ephemeris | Orbit Diagram | Orbital Elements | Mission Design | Physical Parameters | Discovery Circumstances ]

[ show orbit diagram ]
Orbital Elements at Epoch 2458600.5 (2019-Apr-27.0) TDB
Reference: JPL 14 (heliocentric ecliptic J2000)
 Element Value Uncertainty (1-sigma)   Units 
e .1622036731053227 5.1137e-08  
a 2.340672141199168 2.1809e-08 au
q 1.961006522361362 1.2676e-07 au
i 9.150768477822661 6.5632e-06 deg
node 277.5549169056964 4.4847e-05 deg
peri 331.3443180422569 5.085e-05 deg
M 4.623778515566094 2.6427e-05 deg
tp 2458583.700210965504
(2019-Apr-10.20021097)
9.5931e-05 TDB
period 1308.004704822674
3.58
1.8281e-05
5.005e-08
d
yr
n .2752283678129469 3.8467e-09 deg/d
Q 2.720337760036974 2.5347e-08 au
  Orbit Determination Parameters
   # obs. used (total)      301  
   data-arc span      5643 days (15.45 yr)  
   first obs. used      2004-02-19  
   last obs. used      2019-08-02  
   planetary ephem.      DE431  
   SB-pert. ephem.      SB431-N16  
   condition code      0  
   norm. resid. RMS      .56332  
   source      ORB  
   producer      Otto Matic  
   solution date      2019-Sep-24 04:36:27  

Additional Information
 Earth MOID = .951481 au 
 Jupiter MOID = 2.35079 au 
 T_jup = 3.530 
[ show covariance matrix ]

Ephemeris | Orbit Diagram | Orbital Elements | Mission Design | Physical Parameters | Discovery Circumstances ]

Physical Parameter Table
Parameter Symbol Value Units Sigma Reference Notes
absolute magnitude H 16.4   n/a MPO391371  

266252 (2006 YE3)          Discovered 2006-Dec-16 by Spacewatch at Kitt Peak
Reference: 20110218/Numbers.arcLast Updated: 2011-02-22
Ephemeris | Orbit Diagram | Orbital Elements | Mission Design | Physical Parameters | Discovery Circumstances ]
ABOUT SSD CREDITS/AWARDS PRIVACY/COPYRIGHT GLOSSARY LINKS
FirstGov 2019-Dec-06 20:50 UT
(server date/time)  
NASA Home Page
Site Manager:   Ryan S. Park
Webmaster  Alan B. Chamberlin